This demonstration page uses our WeatherBlox Daily Observations layout. Learn more.

Left ArrowRight Arrow

Hourly Observations for February 25, 2019

Temp ( °F °C ) Dew Point ( °F °C ) Humidity (%) Winds ( mph kmh ) Pressure ( in mb ) Visibility ( mi km ) Precip ( " mm )
12:53 am 00:53 Clear 45 7.2 23 -5 42 42 NNW 8 13 30.27 1025 10 16 0.00 0.00
1:53 am 01:53 Clear 42 5.6 24 -4.4 49 49 NW 5 7 30.27 1025 10 16 0.00 0.00
2:53 am 02:53 Clear 41 5 24 -4.4 51 51 N 5 7 30.28 1025 10 16 0.00 0.00
3:53 am 03:53 Clear 41 5 22 -5.6 47 47 VRB 5 7 30.30 1026 10 16 0.00 0.00
4:53 am 04:53 Clear 41 5 21 -6.1 45 45 N 5 7 30.32 1027 10 16 0.00 0.00
5:53 am 05:53 Clear 40 4.4 22 -5.6 49 49 N 3 6 30.35 1028 10 16 0.00 0.00
6:53 am 06:53 Clear 38 3.3 22 -5.6 52 52 N 6 9 30.37 1029 10 16 0.00 0.00
7:53 am 07:53 Sunny 40 4.4 22 -5.6 49 49 N 6 9 30.40 1029 10 16 0.00 0.00
8:53 am 08:53 Sunny 45 7.2 19 -7.2 35 35 VRB 6 9 30.42 1030 10 16 0.00 0.00
9:53 am 09:53 Sunny 48 8.9 15 -9.4 27 27 N 14 22 30.42 1030 10 16 0.00 0.00
10:53 am 10:53 Sunny 52 11.1 18 -7.8 26 26 NNW 8 13 30.42 1030 10 16 0.00 0.00
11:53 am 11:53 Sunny 55 12.8 19 -7.2 24 24 N 10 17 30.42 1030 10 16 0.00 0.00
12:53 pm 12:53 Sunny 56 13.3 17 -8.3 22 22 W 6 9 30.42 1030 10 16 0.00 0.00
1:53 pm 13:53 Sunny 59 15 21 -6.1 23 23 WNW 7 11 30.40 1029 10 16 0.00 0.00
2:53 pm 14:53 Sunny 60 15.6 21 -6.1 22 22 VRB 5 7 30.38 1029 10 16 0.00 0.00
3:53 pm 15:53 Sunny 61 16.1 21 -6.1 21 21 N 6 9 30.36 1028 10 16 0.00 0.00
4:53 pm 16:53 Sunny 61 16.1 20 -6.7 20 20 NNW 5 7 30.37 1028 10 16 0.00 0.00
5:53 pm 17:53 Sunny 59 15 20 -6.7 22 22 N 3 6 30.36 1028 10 16 0.00 0.00
6:53 pm 18:53 Clear 55 12.8 28 -2.2 35 35 Calm 30.38 1029 10 16 0.00 0.00
7:53 pm 19:53 Clear 53 11.7 25 -3.9 34 34 Calm 30.39 1029 10 16 0.00 0.00
8:53 pm 20:53 Clear 51 10.6 27 -2.8 39 39 Calm 30.38 1029 10 16 0.00 0.00
9:53 pm 21:53 Clear 47 8.3 31 -0.6 54 54 Calm 30.38 1029 10 16 0.00 0.00
10:53 pm 22:53 Clear 47 8.3 33 0.6 59 59 NE 3 6 30.37 1028 10 16 0.00 0.00
11:53 pm 23:53 Clear 44 6.7 33 0.6 65 65 Calm 30.36 1028 10 16 0.00 0.00

Powered by AerisWeather